User: anonymous   Login
Location: Lamoine Observatory
(44.4551°N, 68.3470°W)
Time: 06:08:16
(UTC-04:00)
Language:

Cosmos 1674 Rocket - Orbit

View from above orbital plane
View from above orbital plane
View from above satellite
View from above satellite

Ground track
Ground track

The orbit data is extracted from the following two-line orbital elements,

1 15945U 85069B   15185.16143853  .00000199  00000-0  21065-4 0  9990
2 15945 082.5282 081.6354 0021250 116.3243 244.0158 14.83719604615144
Epoch (UTC): 04 July 2015 03:52:28
Eccentricity: 0.0021250
inclination: 82.5282°
perigee height: 603 km
apogee height: 632 km
right ascension of ascending node: 81.6354°
argument of perigee: 116.3243°
revolutions per day: 14.83719604
mean anomaly at epoch: 244.0158°
orbit number at epoch: 61514

The dashed part of the orbit path shows where the satellite is in the earth's shadow,  

DLR